Weather History for KAVP - January, 2014

Change the Weather History Date:

Monday, January 6, 2014

  Actual Average Record
Temperature  
Mean Temperature 30 °F 26 °F  
Max Temperature 54 °F 33 °F 64 °F (2007)
Min Temperature 6 °F 19 °F -8 °F (1904)
Degree Days  
Heating Degree Days 35 39  
Month to date heating degree days 275 233  
Since 1 July heating degree days 2589 2611  
Cooling Degree Days 0 0  
Month to date cooling degree days 0 0  
Year to date cooling degree days 0 0  
Moisture  
Dew Point 31 °F    
Average Humidity 70    
Maximum Humidity 93    
Minimum Humidity 46    
Precipitation  
Precipitation 0.47 in 0.08 in 1.09 in (1962)
Month to date precipitation 0.98 0.43  
Year to date precipitation 0.98 0.43  
Sea Level Pressure  
Sea Level Pressure 29.52 in    
Wind  
Wind Speed 17 mph (WSW)    
Max Wind Speed 30 mph    
Max Gust Speed 41 mph    
Visibility 8 miles    
Events Rain , Snow    
T = Trace of Precipitation, MM = Missing Value Source: NWS Daily Summary

Daily Weather History Graph

Daily Weather History Graph

Search for Another Location

Airport or City:

Trip Planner

Search our weather history database for the weather conditions in past years. The results will help you decide how hot, cold, wet, or windy it might be!

Date:

Astronomy

Jan. 06, 2014 Rise Set
Actual Time 7:28 AM EST 4:48 PM EST
Civil Twilight 6:57 AM EST 5:19 PM EST
Nautical Twilight 6:23 AM EST 5:54 PM EST
Astronomical Twilight 5:49 AM EST 6:27 PM EST
Moon 10:38 AM EST (1/6) 11:24 PM EST (1/6)
Length of Visible Light 10h 21m
Length of Day
9h 20m
Waxing Crescent, 34% of the Moon is Illuminated
Jan 6
Waxing Crescent
Jan 7
First Quarter
Jan 15
Full
Jan 24
Last Quarter
Jan 30
New

Hourly Weather History & Observations

Time (EST) Temp. Windchill Dew Point Humidity Pressure Visibility Wind Dir Wind Speed Gust Speed Precip Events Conditions
12:54 AM 51.1 °F - 48.0 °F 89% 29.57 in 10.0 mi SSW 8.1 mph 17.3 mph 0.01 in   Overcast
1:54 AM 54.0 °F - 48.9 °F 83% 29.51 in 10.0 mi South 12.7 mph 33.4 mph N/A   Overcast
2:04 AM 53.6 °F - 48.2 °F 82% 29.51 in 10.0 mi SSW 19.6 mph 36.8 mph N/A   Overcast
2:14 AM 53.6 °F - 48.2 °F 82% 29.52 in 10.0 mi SSW 19.6 mph 39.1 mph N/A   Overcast
2:54 AM 53.1 °F - 46.9 °F 80% 29.51 in 10.0 mi SSW 17.3 mph 31.1 mph 0.01 in   Overcast
3:27 AM 53.6 °F - 46.4 °F 77% 29.46 in 10.0 mi SSW 15.0 mph 32.2 mph N/A   Mostly Cloudy
3:54 AM 53.1 °F - 46.9 °F 80% 29.45 in 10.0 mi SSW 11.5 mph 28.8 mph 0.01 in   Overcast
4:42 AM 53.6 °F - 46.4 °F 77% 29.41 in 9.0 mi SSW 16.1 mph 31.1 mph 0.00 in Rain Light Rain
4:54 AM 53.1 °F - 48.0 °F 83% 29.39 in 5.0 mi South 15.0 mph 28.8 mph 0.02 in Rain Rain
5:21 AM 53.6 °F - 48.2 °F 82% 29.36 in 4.0 mi South 18.4 mph 34.5 mph 0.03 in Rain Rain
5:39 AM 53.6 °F - 48.2 °F 82% 29.37 in 8.0 mi SW 12.7 mph 27.6 mph 0.05 in Rain Light Rain
5:54 AM 52.0 °F - 48.9 °F 89% 29.38 in 4.0 mi West 15.0 mph 21.9 mph 0.08 in Rain Rain
5:59 AM 50.0 °F - 48.2 °F 94% 29.38 in 3.0 mi West 17.3 mph 24.2 mph 0.01 in Rain Heavy Rain
6:04 AM 50.0 °F - 48.2 °F 94% 29.37 in 1.8 mi WSW 13.8 mph 25.3 mph 0.05 in Rain Heavy Rain
6:12 AM 50.0 °F - 48.2 °F 94% 29.38 in 2.0 mi SW 10.4 mph 25.3 mph 0.10 in Rain Heavy Rain
6:20 AM 50.0 °F - 48.2 °F 94% 29.36 in 2.0 mi SSW 9.2 mph 18.4 mph 0.15 in Rain Rain
6:28 AM 50.0 °F - 48.2 °F 94% 29.38 in 4.0 mi WSW 17.3 mph 21.9 mph 0.16 in Rain Rain
6:54 AM 46.0 °F 37.6 °F 43.0 °F 89% 29.45 in 4.0 mi WSW 24.2 mph 38.0 mph 0.23 in Rain Rain
7:54 AM 41.0 °F 35.2 °F 39.0 °F 93% 29.49 in 6.0 mi WSW 9.2 mph 18.4 mph 0.08 in Rain Rain
8:03 AM 41.0 °F 36.4 °F 37.4 °F 87% 29.48 in 4.0 mi WSW 6.9 mph 20.7 mph 0.02 in Rain Rain
8:23 AM 41.0 °F 37.1 °F 39.2 °F 93% 29.46 in 7.0 mi SW 5.8 mph - 0.03 in Rain Light Rain
8:30 AM 41.0 °F 35.8 °F 39.2 °F 93% 29.46 in 9.0 mi SW 8.1 mph - 0.03 in Rain Light Rain
8:52 AM 41.0 °F 35.8 °F 37.4 °F 87% 29.47 in 10.0 mi SW 8.1 mph 21.9 mph 0.03 in   Overcast
8:54 AM 41.0 °F 34.3 °F 37.9 °F 89% 29.48 in 10.0 mi SW 11.5 mph 21.9 mph 0.03 in   Overcast
9:29 AM 41.0 °F 33.9 °F 37.4 °F 87% 29.47 in 10.0 mi WSW 12.7 mph - 0.00 in Rain Light Rain
9:54 AM 39.0 °F 31.8 °F 32.0 °F 76% 29.51 in 10.0 mi WSW 11.5 mph - 0.00 in   Overcast
10:54 AM 37.0 °F 27.7 °F 30.0 °F 76% 29.52 in 10.0 mi WSW 16.1 mph 27.6 mph N/A   Overcast
11:02 AM 37.4 °F 28.2 °F 30.2 °F 75% 29.51 in 10.0 mi WSW 16.1 mph 23.0 mph N/A   Overcast
11:31 AM 35.6 °F 25.9 °F 28.4 °F 75% 29.51 in 10.0 mi WSW 16.1 mph 21.9 mph 0.00 in Snow Light Snow
11:39 AM 35.6 °F 26.6 °F 28.4 °F 75% 29.51 in 10.0 mi WSW 13.8 mph 17.3 mph 0.00 in   Overcast
11:54 AM 36.0 °F 25.6 °F 27.0 °F 70% 29.51 in 10.0 mi WSW 18.4 mph 26.5 mph 0.00 in   Overcast
12:54 PM 34.0 °F 22.4 °F 21.0 °F 59% 29.51 in 10.0 mi WNW 20.7 mph 33.4 mph N/A   Overcast
1:54 PM 34.0 °F 22.7 °F 18.0 °F 52% 29.52 in 10.0 mi WNW 19.6 mph 26.5 mph N/A   Overcast
2:54 PM 32.0 °F 22.1 °F 19.0 °F 59% 29.55 in 10.0 mi WNW 13.8 mph 25.3 mph 0.00 in   Overcast
3:54 PM 30.9 °F 19.8 °F 12.9 °F 47% 29.57 in 10.0 mi WNW 16.1 mph 28.8 mph N/A   Overcast
4:54 PM 30.0 °F 18.3 °F 12.0 °F 47% 29.57 in 10.0 mi WNW 17.3 mph - N/A   Overcast
5:54 PM 28.9 °F 16.5 °F 12.9 °F 51% 29.59 in 10.0 mi West 18.4 mph 26.5 mph N/A   Overcast
6:54 PM 26.1 °F 12.7 °F 12.0 °F 55% 29.62 in 10.0 mi WSW 18.4 mph 28.8 mph 0.00 in   Overcast
7:54 PM 21.9 °F 5.8 °F 10.0 °F 60% 29.67 in 10.0 mi WSW 23.0 mph 32.2 mph N/A   Scattered Clouds
8:54 PM 14.0 °F -2.5 °F -4.0 °F 45% 29.74 in 10.0 mi WSW 17.3 mph 38.0 mph N/A   Clear
9:54 PM 10.9 °F -9.9 °F -4.0 °F 51% 29.78 in 10.0 mi WSW 26.5 mph 34.5 mph N/A   Scattered Clouds
10:54 PM 7.0 °F -11.6 °F -7.1 °F 53% 29.82 in 10.0 mi WSW 17.3 mph 27.6 mph N/A   Scattered Clouds
11:54 PM 6.1 °F -15.2 °F -11.0 °F 45% 29.86 in 10.0 mi West 23.0 mph 33.4 mph N/A   Clear